utc_time,unix_time,temp,cond,salinity,tds,chla_rfu,chla_ugl,bga_rfu,bga_ugl,odo,sat,nitrate_um,nitrogen_mg,stage,area,discharge,total_discharge
2022-07-01 00:00:02+00:00,1656633602,23.1,58403.55,40.91,,,,,,,0,,,,1.2879,0.0359,0.0718
2022-07-01 00:20:02+00:00,1656634802,23.25,57683.78,40.45,,,,,,,0,,,,1.2879,0.0227,0.0454
2022-07-01 00:40:02+00:00,1656636002,23.32,57154.78,40.2,,,,,,,0,,,,1.2896,0.0179,0.0358
2022-07-01 01:00:02+00:00,1656637202,23.38,56255.37,39.79,,,,,,,0,,,,1.2944,0.0012,0.0024
2022-07-01 01:20:02+00:00,1656638402,23.48,55602.33,39.4,,,,,,,0,,,,1.3008,0.0024,0.0048
2022-07-01 01:40:02+00:00,1656639602,23.54,55010.69,39.19,,,,,,,0,,,,1.3023,0.0218,0.0436
2022-07-01 02:00:02+00:00,1656640802,23.5,54370.89,38.96,,,,,,,0,,,,1.3056,0.0243,0.0486
2022-07-01 02:20:01+00:00,1656642001,23.48,53367.67,38.55,,,,,,,0,,,,1.3072,0.0218,0.0436
2022-07-01 02:40:01+00:00,1656643201,23.57,52572.13,38.31,,,,,,,0,,,,1.3088,0.0511,0.1022
2022-07-01 03:00:01+00:00,1656644401,23.64,52196.79,38.1,,,,,,,0,,,,1.312,0.0573,0.1146
2022-07-01 03:20:01+00:00,1656645601,23.69,51881.31,37.99,,,,,,,0,,,,1.32,0.0725,0.145
2022-07-01 03:40:01+00:00,1656646801,23.71,51478.23,37.87,,,,,,,0,,,,1.3232,0.0616,0.1232
2022-07-01 04:00:01+00:00,1656648001,23.69,51298,37.79,,,,,,,0,,,,1.3264,0.0568,0.1136
2022-07-01 04:20:01+00:00,1656649201,23.67,51179.25,37.71,,,,,,,0,,,,1.3312,0.0421,0.0842
2022-07-01 04:40:01+00:00,1656650401,23.67,50800.7,37.69,,,,,,,0,,,,1.3392,0.0486,0.0972
2022-07-01 05:00:01+00:00,1656651601,23.65,50099.64,37.58,,,,,,,0,,,,1.3424,0.0687,0.1374
2022-07-01 05:20:01+00:00,1656652801,23.61,49856.57,37.54,,,,,,,0,,,,1.3456,0.0489,0.0978
2022-07-01 05:40:01+00:00,1656654001,23.49,49181.43,37.45,,,,,,,0,,,,1.3504,0.0516,0.1032
2022-07-01 06:00:01+00:00,1656655201,23.36,48461.64,37.13,,,,,,,0,,,,1.3584,0.0721,0.1442
2022-07-01 06:20:01+00:00,1656656401,23.14,47747.82,36.9,,,,,,,0,,,,1.3616,0.0888,0.1776
2022-07-01 06:40:01+00:00,1656657601,22.84,47467.89,36.71,,,,,,,0,,,,1.3632,0.0838,0.1676
2022-07-01 07:00:01+00:00,1656658801,22.5,47326.8,36.59,,,,,,,0,,,,1.3632,0.075,0.15
2022-07-01 07:20:02+00:00,1656660002,22.14,47354.79,36.6,,,,,,,0,,,,1.3648,0.0827,0.1654
2022-07-01 07:40:01+00:00,1656661201,21.86,47387.88,36.59,,,,,,,0,,,,1.3648,0.0674,0.1348
2022-07-01 08:00:02+00:00,1656662402,21.59,47327.52,36.59,,,,,,,0,,,,1.3648,0.0776,0.1552
2022-07-01 08:20:02+00:00,1656663602,21.31,47335.93,36.59,,,,,,,0,,,,1.3632,0.0826,0.1652
2022-07-01 08:40:02+00:00,1656664802,21,47320.78,36.64,,,,,,,0,,,,1.3648,0.0725,0.145
2022-07-01 09:00:02+00:00,1656666002,20.78,47233.67,36.65,,,,,,,0,,,,1.3632,0.0661,0.1322
2022-07-01 09:20:02+00:00,1656667202,20.63,47202.56,36.63,,,,,,,0,,,,1.3616,0.0507,0.1014
2022-07-01 09:40:02+00:00,1656668402,20.52,47140.61,36.68,,,,,,,0,,,,1.36,0.0659,0.1318
2022-07-01 10:00:02+00:00,1656669602,20.42,47156.23,36.71,,,,,,,0,,,,1.36,0.0722,0.1444
2022-07-01 10:20:02+00:00,1656670802,20.34,47068.84,36.75,,,,,,,0,,,,1.36,0.0672,0.1344
2022-07-01 10:40:02+00:00,1656672002,20.22,47045.18,36.76,,,,,,,0,,,,1.3584,0.0569,0.1138
2022-07-01 11:00:02+00:00,1656673202,20.13,47007.4,36.74,,,,,,,0,,,,1.3584,0.0493,0.0986
2022-07-01 11:20:01+00:00,1656674401,20.09,46923.62,36.75,,,,,,,0,,,,1.36,0.0329,0.0658
2022-07-01 11:40:01+00:00,1656675601,20.07,46889.14,36.73,,,,,,,0,,,,1.36,0.0494,0.0988
2022-07-01 12:00:01+00:00,1656676801,20.04,46852.92,36.74,,,,,,,0,,,,1.36,0.0621,0.1242
2022-07-01 12:20:01+00:00,1656678001,19.99,46827.88,36.73,,,,,,,0,,,,1.352,0,0
2022-07-01 12:40:01+00:00,1656679201,19.42,46804.42,36.74,,,,,,,0,,,,1.3152,-0.175,-0.35
2022-07-01 13:00:01+00:00,1656680401,18.51,47474.17,36.8,,,,,,,0,,,,1.2832,-0.2112,-0.4224
2022-07-01 13:20:01+00:00,1656681601,18.28,49640.73,38.2,,,,,,,0,,,,1.2496,-0.2437,-0.4874
2022-07-01 13:40:01+00:00,1656682801,18.3,50494.82,38.8,,,,,,,0,,,,1.224,-0.2521,-0.5042
2022-07-01 14:00:01+00:00,1656684001,18.34,51612.7,39.62,,,,,,,0,,,,1.1984,-0.2821,-0.5642
2022-07-01 14:20:01+00:00,1656685201,18.42,52525.77,40.35,,,,,,,0,,,,1.1776,-0.3031,-0.6062
2022-07-01 14:40:01+00:00,1656686401,18.54,53549.36,41.1,,,,,,,0,,,,1.1615,-0.302,-0.604
2022-07-01 15:00:01+00:00,1656687601,18.7,54482.3,41.79,,,,,,,0,,,,1.1504,-0.2915,-0.583
2022-07-01 15:20:01+00:00,1656688801,18.81,55685.49,42.64,,,,,,,0,,,,1.1424,-0.2809,-0.5618
2022-07-01 15:40:01+00:00,1656690001,18.82,56743.38,43.45,,,,,,,0,,,,1.1471,-0.2694,-0.5388
2022-07-01 16:00:01+00:00,1656691201,18.79,57450.42,44.09,,,,,,,0,,,,1.1824,-0.2256,-0.4512
2022-07-01 16:20:02+00:00,1656692402,18.74,57972.19,44.6,,,,,,,0,,,,1.2192,-0.1685,-0.337
2022-07-01 17:00:02+00:00,1656694802,18.74,58465.21,45.09,,,,,,,0,,,,1.2608,-0.041,-0.082
2022-07-01 17:20:02+00:00,1656696002,18.77,58815.2,45.38,,,,,,,0,,,,1.272,-0.0189,-0.0378
2022-07-01 17:40:02+00:00,1656697202,18.82,58976.52,45.53,,,,,,,0,,,,1.2768,0.0059,0.0118
2022-07-01 18:00:02+00:00,1656698402,18.88,57403.37,44.54,,,,,,,0,,,,1.2768,0.0023,0.0046
2022-07-01 18:20:02+00:00,1656699602,18.91,56480.44,43.78,,,,,,,0,,,,1.2784,0.0225,0.045
2022-07-01 18:40:02+00:00,1656700802,18.92,56460.23,43.67,,,,,,,0,,,,1.2784,0.0416,0.0832
2022-07-01 19:00:02+00:00,1656702002,19.03,56737.85,43.61,,,,,,,0,,,,1.2768,0.0866,0.1732
2022-07-01 19:20:01+00:00,1656703201,19.22,56932.8,43.68,,,,,,,0,,,,1.2784,0.0368,0.0736
2022-07-01 19:40:02+00:00,1656704402,19.42,57053.5,43.56,,,,,,,0,,,,1.2815,0.0154,0.0308
2022-07-01 20:00:01+00:00,1656705601,19.52,57085.91,43.35,,,,,,,0,,,,1.2815,0.0524,0.1048
2022-07-01 20:20:01+00:00,1656706801,19.6,57580.46,43.05,,,,,,,0,,,,1.2815,0.0357,0.0714
2022-07-01 20:40:01+00:00,1656708001,19.72,57632.21,42.79,,,,,,,0,,,,1.2815,0.05,0.1
2022-07-01 21:00:01+00:00,1656709201,19.92,57861.81,42.68,,,,,,,0,,,,1.28,0.0571,0.1142
2022-07-01 21:20:01+00:00,1656710401,20.19,NaN,,,,,,,,,,,,1.28,0.0559,0.1118
2022-07-01 21:40:01+00:00,1656711601,20.47,42.11,7.97,,,,,,,0,,,,1.28,0.0404,0.0808
2022-07-01 22:00:01+00:00,1656712801,20.77,57655.38,41.65,,,,,,,0,,,,1.28,0.044,0.088
2022-07-01 22:20:01+00:00,1656714001,21.05,57879.54,41.45,,,,,,,0,,,,1.28,0.0297,0.0594
2022-07-01 22:40:01+00:00,1656715201,21.33,57875.8,41.26,,,,,,,0,,,,1.2784,0.038,0.076
2022-07-01 23:00:01+00:00,1656716401,21.59,57820.43,40.97,,,,,,,0,,,,1.2784,0.032,0.064
2022-07-01 23:20:01+00:00,1656717601,21.8,57869.94,40.7,,,,,,,0,,,,1.2784,0.0285,0.057
2022-07-01 23:40:01+00:00,1656718801,22.02,57566.08,40.58,,,,,,,0,,,,1.2784,0.0261,0.0522
2022-07-02 00:00:01+00:00,1656720001,22.21,57624.03,40.42,,,,,,,0,,,,1.2784,0.019,0.038
2022-07-02 00:20:02+00:00,1656721202,22.35,57459.04,40.39,,,,,,,0,,,,1.28,0.0142,0.0284
2022-07-02 01:00:02+00:00,1656723602,22.7,57094.7,40.26,,,,,,,0,,,,1.2815,0.0142,0.0284
2022-07-02 01:20:02+00:00,1656724802,22.83,56810.4,40.16,,,,,,,0,,,,1.2832,0.0143,0.0286
2022-07-02 01:40:02+00:00,1656726002,22.96,56468.43,40.03,,,,,,,0,,,,1.2832,0.019,0.038
2022-07-02 02:00:02+00:00,1656727202,23.08,55882.86,39.85,,,,,,,0,,,,1.2848,0.0394,0.0788
2022-07-02 02:20:02+00:00,1656728402,23.2,55512.09,39.68,,,,,,,0,,,,1.2848,0.025,0.05
2022-07-02 02:40:02+00:00,1656729602,23.3,55265.48,39.62,,,,,,,0,,,,1.2864,0.0119,0.0238
2022-07-02 03:00:02+00:00,1656730802,23.34,55090.95,39.61,,,,,,,0,,,,1.2896,0.0227,0.0454
2022-07-02 03:20:02+00:00,1656732002,23.41,54632.68,39.58,,,,,,,0,,,,1.2944,0.0276,0.0552
2022-07-02 03:40:02+00:00,1656733202,23.48,54526.24,39.49,,,,,,,0,,,,1.3008,0.029,0.058
2022-07-02 04:00:02+00:00,1656734402,23.5,54418.6,39.52,,,,,,,0,,,,1.304,0.0218,0.0436
2022-07-02 04:20:01+00:00,1656735601,23.47,54246.05,39.53,,,,,,,0,,,,1.3072,0.0243,0.0486
2022-07-02 04:40:01+00:00,1656736801,23.42,54140.62,39.53,,,,,,,0,,,,1.312,0.0097,0.0194
2022-07-02 05:00:02+00:00,1656738002,23.35,53606.28,39.73,,,,,,,0,,,,1.3216,-0.011,-0.022
2022-07-02 05:20:01+00:00,1656739201,23.23,51707.59,39.24,,,,,,,0,,,,1.3264,0.0148,0.0296
2022-07-02 05:40:01+00:00,1656740401,23.1,50497.23,38.66,,,,,,,0,,,,1.3312,0.0471,0.0942
2022-07-02 06:00:01+00:00,1656741601,22.92,49704.02,38.34,,,,,,,0,,,,1.336,0.0584,0.1168
2022-07-02 06:20:01+00:00,1656742801,22.7,49119.55,38.03,,,,,,,0,,,,1.3392,0.0549,0.1098
2022-07-02 06:40:01+00:00,1656744001,22.41,48998.52,37.93,,,,,,,0,,,,1.3408,0.0524,0.1048
2022-07-02 07:00:01+00:00,1656745201,22.11,48805.37,37.84,,,,,,,0,,,,1.3424,0.0625,0.125
2022-07-02 07:20:01+00:00,1656746401,21.83,48621.29,37.77,,,,,,,0,,,,1.3424,0.06,0.12
2022-07-02 07:40:01+00:00,1656747601,21.56,48544.3,37.75,,,,,,,0,,,,1.3424,0.0387,0.0774
2022-07-02 08:00:01+00:00,1656748801,21.28,48464.08,37.71,,,,,,,0,,,,1.344,0.0651,0.1302
2022-07-02 08:20:01+00:00,1656750001,21,48353.93,37.69,,,,,,,0,,,,1.344,0.0713,0.1426
2022-07-02 08:40:02+00:00,1656751202,20.78,48262.88,37.63,,,,,,,0,,,,1.344,0.0789,0.1578
2022-07-02 09:00:02+00:00,1656752402,20.61,48169.32,37.62,,,,,,,0,,,,1.3424,0.0525,0.105
2022-07-02 09:20:02+00:00,1656753602,20.48,47902.29,37.58,,,,,,,0,,,,1.3424,0.045,0.09
2022-07-02 09:40:02+00:00,1656754802,20.35,47687.14,37.51,,,,,,,0,,,,1.3424,0.0362,0.0724
2022-07-02 10:00:02+00:00,1656756002,20.26,47528.83,37.48,,,,,,,0,,,,1.3504,0.0289,0.0578
2022-07-02 10:20:02+00:00,1656757202,20.25,47428.88,37.43,,,,,,,0,,,,1.3552,0.0126,0.0252
2022-07-02 10:40:02+00:00,1656758402,20.26,47329.47,37.41,,,,,,,0,,,,1.3472,0.015,0.03
2022-07-02 11:00:02+00:00,1656759602,20.26,47213.85,37.39,,,,,,,0,,,,1.3344,0.031,0.062
2022-07-02 11:20:02+00:00,1656760802,20.23,47107.86,37.34,,,,,,,0,,,,1.3328,0.0186,0.0372
2022-07-02 11:40:02+00:00,1656762002,20.23,47028.32,37.32,,,,,,,0,,,,1.3312,0.0223,0.0446
2022-07-02 12:00:02+00:00,1656763202,20.23,46953.7,37.33,,,,,,,0,,,,1.328,0.0457,0.0914
2022-07-02 12:20:02+00:00,1656764402,20.23,46834.54,37.32,,,,,,,0,,,,1.3232,0.016,0.032
2022-07-02 12:40:02+00:00,1656765602,20.22,46755.63,37.29,,,,,,,0,,,,1.3312,0.0136,0.0272
2022-07-02 13:00:01+00:00,1656766801,20.21,46694.34,37.29,,,,,,,0,,,,1.3456,-0.0188,-0.0376
2022-07-02 13:20:01+00:00,1656768001,19.63,46630.61,37.27,,,,,,,0,,,,1.3023,-0.1648,-0.3296
2022-07-02 13:40:01+00:00,1656769201,18.39,47118.06,37.14,,,,,,,0,,,,1.2656,-0.2222,-0.4444
2022-07-02 14:00:02+00:00,1656770402,18.15,49913.14,38.67,,,,,,,0,,,,1.2288,-0.2588,-0.5176
2022-07-02 14:20:02+00:00,1656771602,18.19,51171.54,39.5,,,,,,,0,,,,1.2016,-0.2829,-0.5658
2022-07-02 14:40:01+00:00,1656772801,18.32,52193.09,40.23,,,,,,,0,,,,1.1824,-0.2737,-0.5474
2022-07-02 15:00:01+00:00,1656774001,18.44,53180.38,40.9,,,,,,,0,,,,1.168,-0.28,-0.56
2022-07-02 15:20:01+00:00,1656775201,18.55,54421.02,41.82,,,,,,,0,,,,1.1584,-0.284,-0.568
2022-07-02 15:40:01+00:00,1656776401,18.66,55430.38,42.58,,,,,,,0,,,,1.1504,-0.2755,-0.551
2022-07-02 16:00:01+00:00,1656777601,18.73,56370.34,43.3,,,,,,,0,,,,1.1536,-0.2539,-0.5078
2022-07-02 16:20:01+00:00,1656778801,18.74,57277.13,44.03,,,,,,,0,,,,1.1776,-0.1984,-0.3968
2022-07-02 16:40:01+00:00,1656780001,18.73,57983.49,44.66,,,,,,,0,,,,1.2112,-0.1213,-0.2426
2022-07-02 17:00:01+00:00,1656781201,18.75,58313.75,44.95,,,,,,,0,,,,1.2352,-0.0607,-0.1214
2022-07-02 17:20:01+00:00,1656782401,18.8,NaN,,,,,,,,,,,,1.2496,-0.022,-0.044
2022-07-02 17:40:01+00:00,1656783601,18.86,58823.91,45.28,,,,,,,0,,,,1.2544,0.0069,0.0138
2022-07-02 18:20:02+00:00,1656786002,18.99,58996.07,44.98,,,,,,,0,,,,1.256,0.0315,0.063
2022-07-02 18:40:02+00:00,1656787202,19.09,59175.46,44.87,,,,,,,0,,,,1.256,0.014,0.028
2022-07-02 19:00:02+00:00,1656788402,19.2,59828.89,44.5,,,,,,,0,,,,1.2544,0.0256,0.0512
2022-07-02 19:20:02+00:00,1656789602,19.42,60375.15,44.38,,,,,,,0,,,,1.2496,0.0243,0.0486
2022-07-02 19:40:02+00:00,1656790802,19.84,61019.18,44.23,,,,,,,0,,,,1.2544,0.0442,0.0884
2022-07-02 20:00:02+00:00,1656792002,20.45,61399.61,44.08,,,,,,,0,,,,1.2512,0.0534,0.1068
2022-07-02 20:20:02+00:00,1656793202,20.99,61773.44,43.82,,,,,,,0,,,,1.2576,0.0362,0.0724
2022-07-02 20:40:02+00:00,1656794402,21.3,61892.09,43.6,,,,,,,0,,,,1.2608,0.0316,0.0632
2022-07-02 21:00:02+00:00,1656795602,21.42,62011.91,43.31,,,,,,,0,,,,1.2544,0.0163,0.0326
2022-07-02 21:20:01+00:00,1656796801,21.7,62240.54,43.14,,,,,,,0,,,,1.256,0.042,0.084
2022-07-02 21:40:02+00:00,1656798002,22.21,62474.73,43.07,,,,,,,0,,,,1.2576,0.0537,0.1074
2022-07-02 22:00:01+00:00,1656799201,22.57,62531.2,42.88,,,,,,,0,,,,1.2591,0.0596,0.1192
2022-07-02 22:20:01+00:00,1656800401,22.81,62254.29,42.67,,,,,,,0,,,,1.2576,0.0478,0.0956
2022-07-02 22:40:01+00:00,1656801601,23.04,61790.81,42.4,,,,,,,0,,,,1.2608,0.0374,0.0748
2022-07-02 23:00:01+00:00,1656802801,23.18,61681.41,42.22,,,,,,,0,,,,1.2608,0.0386,0.0772
2022-07-02 23:20:01+00:00,1656804001,23.31,61184.95,41.89,,,,,,,0,,,,1.264,0.0422,0.0844
2022-07-02 23:40:01+00:00,1656805201,23.54,60825.41,41.64,,,,,,,0,,,,1.2671,0.0117,0.0234
2022-07-03 00:00:01+00:00,1656806401,23.74,60622.33,41.47,,,,,,,0,,,,1.2688,0.0224,0.0448
2022-07-03 00:20:01+00:00,1656807601,23.92,60255.3,41.28,,,,,,,0,,,,1.2704,0.0389,0.0778
2022-07-03 00:40:01+00:00,1656808801,24.18,59895.78,41.09,,,,,,,0,,,,1.2752,0.0237,0.0474
2022-07-03 01:00:01+00:00,1656810001,24.3,59644.37,41,,,,,,,0,,,,1.2815,0.0131,0.0262
2022-07-03 01:20:01+00:00,1656811201,24.48,59191.24,40.85,,,,,,,0,,,,1.2848,0.0083,0.0166
2022-07-03 01:40:01+00:00,1656812401,24.62,58090.58,40.56,,,,,,,0,,,,1.2896,-0.0095,-0.019
2022-07-03 02:00:01+00:00,1656813601,24.69,57529.38,40.24,,,,,,,0,,,,1.2944,-0.0072,-0.0144
2022-07-03 02:20:01+00:00,1656814801,24.76,56855.71,40.03,,,,,,,0,,,,1.2992,0.012,0.024
2022-07-03 03:00:02+00:00,1656817202,24.67,55471.94,39.48,,,,,,,0,,,,1.3023,0.0254,0.0508
2022-07-03 03:20:02+00:00,1656818402,24.67,54208.77,39.19,,,,,,,0,,,,1.3056,0.0255,0.051
2022-07-03 03:40:02+00:00,1656819602,24.66,53577.82,38.91,,,,,,,0,,,,1.3072,0.0316,0.0632
2022-07-03 04:00:02+00:00,1656820802,24.67,53271.52,38.78,,,,,,,0,,,,1.3072,0.0316,0.0632
2022-07-03 04:20:02+00:00,1656822002,24.54,53068.66,38.73,,,,,,,0,,,,1.3072,0.0644,0.1288
2022-07-03 04:40:02+00:00,1656823202,24.25,52641.68,38.61,,,,,,,0,,,,1.3023,0.0315,0.063
2022-07-03 05:00:02+00:00,1656824402,24.04,52249.46,38.53,,,,,,,0,,,,1.304,0.0509,0.1018
2022-07-03 05:20:02+00:00,1656825602,23.96,51705.28,38.46,,,,,,,0,,,,1.3072,0.0158,0.0316
2022-07-03 05:40:02+00:00,1656826802,23.9,51164.73,38.26,,,,,,,0,,,,1.3152,0.0146,0.0292
2022-07-03 06:00:02+00:00,1656828002,23.98,50564.89,38.09,,,,,,,0,,,,1.3184,0.0122,0.0244
2022-07-03 06:20:01+00:00,1656829201,24.02,49953.47,37.93,,,,,,,0,,,,1.3248,0.0481,0.0962
2022-07-03 06:40:01+00:00,1656830401,23.89,49396.13,37.78,,,,,,,0,,,,1.3264,0.0494,0.0988
2022-07-03 07:00:01+00:00,1656831601,23.69,48818.5,37.54,,,,,,,0,,,,1.3296,0.0767,0.1534
2022-07-03 07:20:01+00:00,1656832801,23.51,48316.93,37.33,,,,,,,0,,,,1.3296,0.0643,0.1286
2022-07-03 07:40:01+00:00,1656834001,23.31,47888.9,37.09,,,,,,,0,,,,1.328,0.068,0.136
2022-07-03 08:00:01+00:00,1656835201,23.11,47381.73,36.91,,,,,,,0,,,,1.3296,0.0582,0.1164
2022-07-03 08:20:01+00:00,1656836401,22.99,47110.37,36.68,,,,,,,0,,,,1.336,0.0522,0.1044
2022-07-03 08:40:01+00:00,1656837601,22.83,47170.65,36.65,,,,,,,0,,,,1.3344,0.0708,0.1416
2022-07-03 09:00:01+00:00,1656838801,22.64,47043.28,36.58,,,,,,,0,,,,1.328,0.0383,0.0766
2022-07-03 09:20:01+00:00,1656840001,22.48,47077.29,36.63,,,,,,,0,,,,1.3184,0.0626,0.1252
2022-07-03 09:40:01+00:00,1656841201,22.42,46844.61,36.59,,,,,,,0,,,,1.3088,0.0889,0.1778
2022-07-03 10:00:01+00:00,1656842401,22.38,46878.21,36.6,,,,,,,0,,,,1.3008,0.0242,0.0484
2022-07-03 10:20:01+00:00,1656843601,22.24,46841.96,36.6,,,,,,,0,,,,1.3023,0.0545,0.109
2022-07-03 10:40:01+00:00,1656844801,22.21,46730.46,36.61,,,,,,,0,,,,1.3008,0.0738,0.1476
2022-07-03 11:00:01+00:00,1656846001,22.16,46567.2,36.64,,,,,,,0,,,,1.3023,0.0666,0.1332
2022-07-03 11:20:02+00:00,1656847202,22.07,46351.89,36.61,,,,,,,0,,,,1.304,0.0813,0.1626
2022-07-03 11:40:01+00:00,1656848401,22.01,46235.05,36.6,,,,,,,0,,,,1.3136,0.0281,0.0562
2022-07-03 12:00:02+00:00,1656849602,21.96,46097.66,36.57,,,,,,,0,,,,1.3184,0.0454,0.0908
2022-07-03 12:20:02+00:00,1656850802,21.94,45998.81,36.56,,,,,,,0,,,,1.2832,0.0143,0.0286
2022-07-03 12:40:02+00:00,1656852002,21.91,45916.99,36.55,,,,,,,0,,,,1.2608,-0.0058,-0.0116
2022-07-03 13:00:02+00:00,1656853202,21.84,45864.09,36.55,,,,,,,0,,,,1.3248,-0.0061,-0.0122
2022-07-03 13:20:02+00:00,1656854402,21.84,45856.05,36.56,,,,,,,0,,,,1.1407,0.0126,0.0252
2022-07-03 13:40:02+00:00,1656855602,21.83,45788.95,36.53,,,,,,,0,,,,1.3232,0.0221,0.0442
2022-07-03 14:00:02+00:00,1656856802,21.7,45746.43,36.53,,,,,,,0,,,,1.3152,-0.0477,-0.0954
2022-07-03 14:20:02+00:00,1656858002,20.17,45717.15,36.52,,,,,,,0,,,,1.2879,-0.1772,-0.3544
2022-07-03 14:40:02+00:00,1656859202,18.57,47106.59,36.8,,,,,,,0,,,,1.2512,-0.2138,-0.4276
2022-07-03 15:00:02+00:00,1656860402,18.26,50176,38.86,,,,,,,0,,,,1.2224,-0.2256,-0.4512
2022-07-03 15:20:02+00:00,1656861602,18.19,51424.79,39.73,,,,,,,0,,,,1.2032,-0.2308,-0.4616
2022-07-03 15:40:01+00:00,1656862801,18.23,52278.96,40.39,,,,,,,0,,,,1.1888,-0.2423,-0.4846
2022-07-03 16:00:01+00:00,1656864001,18.33,53145.8,41.04,,,,,,,0,,,,1.1776,-0.2246,-0.4492
2022-07-03 16:20:01+00:00,1656865201,18.4,54251.02,41.83,,,,,,,0,,,,1.1856,-0.1965,-0.393
2022-07-03 16:40:01+00:00,1656866401,18.45,55075.32,42.47,,,,,,,0,,,,1.208,-0.15,-0.3
2022-07-03 17:00:01+00:00,1656867601,18.5,55612.62,42.92,,,,,,,0,,,,1.232,-0.0903,-0.1806
2022-07-03 17:20:01+00:00,1656868801,18.56,56071.07,43.29,,,,,,,0,,,,1.248,-0.0498,-0.0996
2022-07-03 17:40:01+00:00,1656870001,18.64,56248.52,43.42,,,,,,,0,,,,1.256,-0.0105,-0.021
2022-07-03 18:00:01+00:00,1656871201,18.73,56382.99,43.49,,,,,,,0,,,,1.2591,-0.007,-0.014
2022-07-03 18:20:01+00:00,1656872401,18.83,56471.07,43.48,,,,,,,0,,,,1.2608,0.0246,0.0492
2022-07-03 18:40:01+00:00,1656873601,18.94,56555.36,43.4,,,,,,,0,,,,1.2608,0.0082,0.0164
2022-07-03 19:00:01+00:00,1656874801,19.08,56436.7,43.08,,,,,,,0,,,,1.2608,0.0105,0.021
2022-07-03 19:20:01+00:00,1656876001,19.23,56821.32,42.91,,,,,,,0,,,,1.2608,0.0339,0.0678
2022-07-03 19:40:01+00:00,1656877201,19.39,57181.53,42.67,,,,,,,0,,,,1.2591,0.0233,0.0466
2022-07-03 20:00:01+00:00,1656878401,19.57,57480.58,42.2,,,,,,,0,,,,1.2591,0.0292,0.0584
2022-07-03 20:20:02+00:00,1656879602,19.77,57754.52,41.9,,,,,,,0,,,,1.2591,0.0304,0.0608
2022-07-03 20:40:02+00:00,1656880802,19.97,57974.52,41.76,,,,,,,0,,,,1.2591,0.028,0.056
2022-07-03 21:00:02+00:00,1656882002,20.13,58222.18,41.48,,,,,,,0,,,,1.2591,0.0432,0.0864
2022-07-03 21:20:02+00:00,1656883202,20.34,58482.95,41.34,,,,,,,0,,,,1.2591,0.0339,0.0678
2022-07-03 21:40:02+00:00,1656884402,20.49,58695.39,41.24,,,,,,,0,,,,1.2591,0.0397,0.0794
2022-07-03 22:00:02+00:00,1656885602,20.8,58859.93,41.2,,,,,,,0,,,,1.2608,0.0398,0.0796
2022-07-03 22:20:02+00:00,1656886802,21.22,40.72,8.35,,,,,,,0,,,,1.2624,0.0551,0.1102
2022-07-03 22:40:02+00:00,1656888002,21.56,NaN,,,,,,,,,,,,1.264,0.0399,0.0798
2022-07-03 23:00:02+00:00,1656889202,22.13,58269.18,40.49,,,,,,,0,,,,1.2656,0.0388,0.0776
2022-07-03 23:20:02+00:00,1656890402,22.7,57857.02,40.18,,,,,,,0,,,,1.2671,0.04,0.08
2022-07-03 23:40:02+00:00,1656891602,23.05,57614.11,39.94,,,,,,,0,,,,1.272,0.0224,0.0448
2022-07-04 00:00:01+00:00,1656892801,23.3,57321.05,39.75,,,,,,,0,,,,1.2752,0.0604,0.1208
2022-07-04 00:20:01+00:00,1656894001,23.51,56661.07,39.41,,,,,,,0,,,,1.2784,0.038,0.076
2022-07-04 00:40:01+00:00,1656895201,23.71,56260.3,39.12,,,,,,,0,,,,1.2815,0.0357,0.0714
2022-07-04 01:00:01+00:00,1656896401,23.91,55419,38.83,,,,,,,0,,,,1.2832,0.0501,0.1002
2022-07-04 01:20:01+00:00,1656897601,24.02,54977.68,38.61,,,,,,,0,,,,1.2848,0.0549,0.1098
2022-07-04 01:40:01+00:00,1656898801,24.12,54600.84,38.46,,,,,,,0,,,,1.2864,0.0334,0.0668
2022-07-04 02:00:01+00:00,1656900001,24.22,54036.62,38.29,,,,,,,0,,,,1.2864,0.0131,0.0262
2022-07-04 02:20:01+00:00,1656901201,24.26,53719.15,38.14,,,,,,,0,,,,1.2864,0.0382,0.0764
2022-07-04 02:40:01+00:00,1656902401,24.26,53220.39,38,,,,,,,0,,,,1.2879,0.0335,0.067
2022-07-04 03:00:01+00:00,1656903601,24.24,53069.8,37.93,,,,,,,0,,,,1.2879,0.0371,0.0742
2022-07-04 03:20:01+00:00,1656904801,24.2,52469.96,37.81,,,,,,,0,,,,1.2879,0.0155,0.031
2022-07-04 03:40:01+00:00,1656906001,24.16,51987.63,37.65,,,,,,,0,,,,1.2896,0.0143,0.0286
2022-07-04 04:00:01+00:00,1656907201,24.08,51434.14,37.57,,,,,,,0,,,,1.2912,0.0096,0.0192
2022-07-04 04:20:02+00:00,1656908402,24.12,50659.73,37.45,,,,,,,0,,,,1.2976,0.012,0.024
2022-07-04 04:40:01+00:00,1656909601,24.07,50400.95,37.35,,,,,,,0,,,,1.3023,0.0218,0.0436
2022-07-04 05:20:02+00:00,1656912002,23.95,49787.91,37.26,,,,,,,0,,,,1.3088,0.017,0.034
2022-07-04 05:40:02+00:00,1656913202,23.86,49522.93,37.23,,,,,,,0,,,,1.3136,0.0464,0.0928
2022-07-04 06:00:02+00:00,1656914402,23.75,49271.19,37.17,,,,,,,0,,,,1.3104,0.0317,0.0634
2022-07-04 06:20:02+00:00,1656915602,23.67,49174.35,37.21,,,,,,,0,,,,1.3167,0.0612,0.1224
2022-07-04 06:40:02+00:00,1656916802,23.52,48655.41,37.14,,,,,,,0,,,,1.3296,0.0396,0.0792
2022-07-04 07:00:02+00:00,1656918002,23.33,48168.59,37.02,,,,,,,0,,,,1.3312,0.0458,0.0916
2022-07-04 07:20:02+00:00,1656919202,23.14,47579.62,36.81,,,,,,,0,,,,1.336,0.0572,0.1144
2022-07-04 07:40:02+00:00,1656920402,22.95,47103.69,36.73,,,,,,,0,,,,1.336,0.0485,0.097
2022-07-04 08:00:02+00:00,1656921602,22.75,46879.07,36.61,,,,,,,0,,,,1.3376,0.0635,0.127
2022-07-04 08:20:01+00:00,1656922801,22.55,46856.6,36.57,,,,,,,0,,,,1.3376,0.0722,0.1444
2022-07-04 08:40:02+00:00,1656924002,22.39,46863.09,36.54,,,,,,,0,,,,1.3392,0.0436,0.0872
2022-07-04 09:00:01+00:00,1656925201,22.19,46822.64,36.55,,,,,,,0,,,,1.3408,0.0724,0.1448
2022-07-04 09:20:01+00:00,1656926401,21.96,46861.7,36.58,,,,,,,0,,,,1.3408,0.0499,0.0998
2022-07-04 09:40:01+00:00,1656927601,21.71,46866.9,36.61,,,,,,,0,,,,1.3424,0.06,0.12
2022-07-04 10:00:01+00:00,1656928801,21.47,46870.72,36.63,,,,,,,0,,,,1.3424,0.0537,0.1074
2022-07-04 10:20:01+00:00,1656930001,21.25,46789.93,36.63,,,,,,,0,,,,1.3424,0.0587,0.1174
2022-07-04 10:40:01+00:00,1656931201,20.94,46713.23,36.66,,,,,,,0,,,,1.3408,0.0462,0.0924
2022-07-04 11:00:01+00:00,1656932401,20.57,46570.84,36.68,,,,,,,0,,,,1.3408,0.0437,0.0874
2022-07-04 11:20:01+00:00,1656933601,20.28,46438.5,36.65,,,,,,,0,,,,1.3424,0.0562,0.1124
2022-07-04 11:40:01+00:00,1656934801,20.09,46279.45,36.66,,,,,,,0,,,,1.3408,0.0387,0.0774
2022-07-04 12:00:01+00:00,1656936001,19.93,46170.72,36.63,,,,,,,0,,,,1.3408,0.0062,0.0124
2022-07-04 12:20:01+00:00,1656937201,19.83,46080.38,36.62,,,,,,,0,,,,1.3408,0.0162,0.0324
2022-07-04 12:40:01+00:00,1656938401,19.75,46009.31,36.61,,,,,,,0,,,,1.3408,0.0037,0.0074
2022-07-04 13:00:01+00:00,1656939601,19.64,45920.66,36.62,,,,,,,0,,,,1.3392,0.0299,0.0598
2022-07-04 13:20:02+00:00,1656940802,19.56,45806.91,36.63,,,,,,,0,,,,1.3392,0.0074,0.0148
2022-07-04 13:40:02+00:00,1656942002,19.53,45717.3,36.6,,,,,,,0,,,,1.3408,0.0124,0.0248
2022-07-04 14:00:02+00:00,1656943202,19.48,45646.17,36.59,,,,,,,0,,,,1.3408,0.0062,0.0124
2022-07-04 14:20:02+00:00,1656944402,19.54,45589.97,36.58,,,,,,,0,,,,1.3392,-0.0037,-0.0074
2022-07-04 14:40:02+00:00,1656945602,19.59,45519.58,36.58,,,,,,,0,,,,1.3392,0.0062,0.0124
2022-07-04 15:00:02+00:00,1656946802,19.61,45462.43,36.57,,,,,,,0,,,,1.3376,0.0012,0.0024
2022-07-04 15:20:02+00:00,1656948002,19.29,45418.13,36.56,,,,,,,0,,,,1.3152,-0.1285,-0.257
2022-07-04 15:40:02+00:00,1656949202,18.34,45509.31,36.53,,,,,,,0,,,,1.2864,-0.1758,-0.3516
2022-07-04 16:00:02+00:00,1656950402,18.31,48072.34,37.38,,,,,,,0,,,,1.2784,-0.1331,-0.2662
2022-07-04 16:20:02+00:00,1656951602,18.75,49391.21,37.97,,,,,,,0,,,,1.2735,-0.1491,-0.2982
2022-07-04 16:40:02+00:00,1656952802,19.22,51031.71,38.71,,,,,,,0,,,,1.2735,-0.1183,-0.2366
2022-07-04 17:00:02+00:00,1656954002,19.6,52332.14,39.43,,,,,,,0,,,,1.2864,-0.0562,-0.1124
2022-07-04 17:20:01+00:00,1656955201,19.83,53261.39,39.96,,,,,,,0,,,,1.296,-0.0204,-0.0408